QPF
0.00 0.01 0.03 0.04 0.04 0.04 0.05 0.04 0.02 0.02 0.02 0.02 0.01 0.01 0.02 0.02 0.02 0.02 0.02 0.01 0.01 0.02 0.02 0.02 0.02 0.02 0.02 0.02 0.01 0.01 0.01 0.01 0.00 0.00 0.00 0.00 0.00 0.00 0.00 0.00 0.00 0.01 0.01
0.00 0.01 0.03 0.04 0.05 0.04 0.04 0.05 0.04 0.03 0.03 0.02 0.02 0.02 0.01 0.02 0.02 0.03 0.02 0.02 0.02 0.02 0.02 0.02 0.02 0.01 0.02 0.02 0.01 0.01 0.00 0.00 0.00 0.00 0.00 0.00 0.00 0.00 0.00 0.00 0.00 0.01 0.01
0.00 0.00 0.01 0.04 0.06 0.06 0.04 0.05 0.04 0.04 0.04 0.03 0.02 0.02 0.01 0.01 0.02 0.02 0.02 0.02 0.02 0.02 0.02 0.02 0.02 0.02 0.02 0.01 0.01 0.01 0.00 0.00 0.00 0.00 0.00 0.00 0.00 0.00 0.00 0.01 0.01 0.01 0.01
0.00 0.00 0.01 0.03 0.05 0.06 0.05 0.04 0.04 0.04 0.03 0.04 0.03 0.02 0.02 0.02 0.02 0.02 0.02 0.02 0.02 0.02 0.01 0.01 0.01 0.01 0.01 0.01 0.01 0.01 0.00 0.00 0.00 0.00 0.00 0.00 0.00 0.00 0.00 0.01 0.01 0.01 0.01
0.00 0.00 0.01 0.03 0.05 0.06 0.06 0.05 0.05 0.04 0.03 0.04 0.04 0.04 0.02 0.02 0.02 0.02 0.02 0.01 0.01 0.01 0.01 0.01 0.01 0.01 0.01 0.01 0.01 0.00 0.00 0.00 0.00 0.00 0.00 0.00 0.00 0.01 0.01 0.01 0.01 0.01 0.02
0.00 0.00 0.01 0.03 0.06 0.07 0.06 0.06 0.06 0.05 0.04 0.04 0.04 0.05 0.03 0.03 0.02 0.01 0.01 0.01 0.01 0.01 0.01 0.01 0.01 0.01 0.00 0.01 0.01 0.00 0.00 0.00 0.00 0.00 0.00 0.00 0.00 0.01 0.02 0.01 0.01 0.01 0.01
0.01 0.01 0.01 0.04 0.05 0.06 0.06 0.07 0.07 0.07 0.06 0.05 0.04 0.03 0.04 0.03 0.02 0.02 0.01 0.01 0.01 0.01 0.01 0.01 0.01 0.01 0.00 0.00 0.00 0.01 0.00 0.00 0.00 0.00 0.00 0.00 0.00 0.01 0.02 0.01 0.01 0.01 0.01
0.01 0.01 0.01 0.03 0.04 0.05 0.05 0.06 0.08 0.10 0.09 0.07 0.06 0.04 0.04 0.04 0.03 0.02 0.01 0.01 0.01 0.01 0.01 0.01 0.01 0.01 0.01 0.00 0.00 0.00 0.00 0.00 0.00 0.00 0.00 0.00 0.00 0.01 0.01 0.01 0.01 0.01 0.01
0.02 0.01 0.02 0.02 0.03 0.04 0.05 0.06 0.08 0.09 0.12 0.11 0.09 0.05 0.03 0.03 0.04 0.04 0.02 0.01 0.01 0.01 0.01 0.01 0.01 0.01 0.01 0.01 0.01 0.00 0.00 0.00 0.00 0.00 0.00 0.00 0.01 0.01 0.01 0.00 0.01 0.01 0.02
0.03 0.02 0.03 0.02 0.03 0.04 0.05 0.06 0.08 0.10 0.13 0.17 0.12 0.07 0.04 0.03 0.04 0.04 0.03 0.02 0.01 0.01 0.01 0.01 0.02 0.01 0.01 0.01 0.01 0.01 0.01 0.00 0.00 0.00 0.00 0.00 0.01 0.01 0.01 0.01 0.01 0.01 0.01
0.05 0.04 0.04 0.03 0.03 0.04 0.05 0.07 0.07 0.10 0.12 0.15 0.17 0.10 0.05 0.04 0.05 0.05 0.04 0.02 0.01 0.01 0.01 0.01 0.01 0.02 0.01 0.01 0.01 0.01 0.01 0.01 0.00 0.00 0.00 0.00 0.01 0.02 0.02 0.01 0.01 0.01 0.01
0.07 0.06 0.04 0.03 0.03 0.03 0.05 0.07 0.08 0.07 0.09 0.11 0.14 0.11 0.06 0.05 0.04 0.06 0.06 0.04 0.01 0.01 0.01 0.01 0.01 0.02 0.02 0.01 0.01 0.01 0.01 0.01 0.01 0.00 0.00 0.01 0.01 0.02 0.02 0.01 0.01 0.01 0.01
0.08 0.07 0.06 0.04 0.03 0.02 0.04 0.06 0.09 0.09 0.08 0.09 0.10 0.12 0.09 0.06 0.04 0.04 0.06 0.07 0.03 0.01 0.01 0.01 0.01 0.01 0.01 0.01 0.01 0.01 0.01 0.01 0.01 0.01 0.01 0.01 0.02 0.02 0.02 0.01 0.01 0.01 0.01
0.12 0.09 0.06 0.04 0.03 0.02 0.03 0.07 0.08 0.10 0.10 0.07 0.07 0.10 0.12 0.09 0.05 0.03 0.04 0.06 0.04 0.01 0.01 0.01 0.01 0.01 0.01 0.01 0.01 0.01 0.01 0.01 0.01 0.01 0.01 0.01 0.01 0.01 0.01 0.01 0.01 0.01 0.01
0.14 0.13 0.08 0.04 0.02 0.02 0.03 0.05 0.09 0.11 0.12 0.08 0.05 0.07 0.11 0.11 0.07 0.04 0.03 0.03 0.03 0.02 0.01 0.01 0.01 0.01 0.01 0.01 0.01 0.01 0.01 0.01 0.01 0.01 0.01 0.01 0.01 0.01 0.01 0.01 0.01 0.01 0.01
0.12 0.14 0.10 0.05 0.03 0.03 0.04 0.05 0.08 0.11 0.13 0.12 0.07 0.05 0.10 0.11 0.09 0.05 0.03 0.03 0.04 0.03 0.02 0.01 0.01 0.01 0.01 0.01 0.01 0.01 0.01 0.01 0.01 0.01 0.01 0.01 0.01 0.01 0.01 0.01 0.01 0.01 0.00
0.10 0.12 0.10 0.06 0.04 0.04 0.04 0.05 0.07 0.09 0.15 0.16 0.08 0.05 0.08 0.11 0.10 0.07 0.05 0.04 0.04 0.03 0.03 0.02 0.01 0.01 0.01 0.01 0.01 0.01 0.01 0.01 0.01 0.01 0.01 0.01 0.01 0.01 0.01 0.01 0.01 0.01 0.01
0.10 0.13 0.11 0.06 0.05 0.06 0.05 0.04 0.07 0.08 0.11 0.14 0.10 0.07 0.07 0.08 0.10 0.07 0.06 0.05 0.04 0.03 0.04 0.04 0.03 0.02 0.01 0.01 0.01 0.01 0.01 0.01 0.01 0.01 0.01 0.01 0.01 0.01 0.01 0.01 0.01 0.01 0.01
0.09 0.12 0.10 0.06 0.04 0.05 0.06 0.04 0.07 0.08 0.09 0.10 0.11 0.10 0.07 0.06 0.07 0.06 0.06 0.07 0.05 0.04 0.03 0.04 0.05 0.03 0.01 0.01 0.01 0.01 0.01 0.01 0.01 0.01 0.01 0.01 0.01 0.01 0.01 0.01 0.00 0.00 0.00
0.09 0.11 0.10 0.07 0.04 0.04 0.07 0.06 0.08 0.08 0.08 0.09 0.10 0.10 0.09 0.08 0.07 0.07 0.05 0.07 0.07 0.06 0.05 0.03 0.03 0.04 0.02 0.01 0.01 0.01 0.02 0.02 0.02 0.01 0.01 0.01 0.01 0.01 0.01 0.01 0.01 0.00 0.00
0.09 0.09 0.09 0.07 0.04 0.03 0.05 0.08 0.09 0.08 0.07 0.08 0.08 0.08 0.09 0.08 0.08 0.08 0.06 0.05 0.06 0.07 0.07 0.08 0.07 0.06 0.03 0.02 0.02 0.01 0.01 0.02 0.02 0.02 0.02 0.02 0.01 0.01 0.01 0.01 0.01 0.01 0.00
0.08 0.08 0.09 0.07 0.05 0.04 0.04 0.09 0.10 0.07 0.06 0.06 0.08 0.07 0.08 0.08 0.08 0.08 0.08 0.04 0.04 0.03 0.03 0.05 0.07 0.11 0.11 0.08 0.05 0.02 0.01 0.01 0.01 0.01 0.02 0.02 0.02 0.02 0.01 0.01 0.01 0.01 0.00
0.07 0.07 0.07 0.06 0.05 0.05 0.05 0.07 0.09 0.07 0.05 0.05 0.06 0.05 0.06 0.07 0.08 0.08 0.07 0.05 0.03 0.02 0.01 0.02 0.03 0.04 0.08 0.10 0.10 0.07 0.03 0.02 0.01 0.01 0.01 0.01 0.01 0.01 0.01 0.01 0.01 0.01 0.01
0.06 0.07 0.04 0.04 0.03 0.03 0.04 0.05 0.05 0.06 0.05 0.05 0.04 0.04 0.05 0.06 0.07 0.07 0.07 0.05 0.02 0.01 0.01 0.01 0.01 0.02 0.03 0.05 0.06 0.06 0.05 0.03 0.02 0.01 0.01 0.01 0.01 0.01 0.01 0.01 0.01 0.01 0.01
0.04 0.06 0.04 0.03 0.03 0.03 0.04 0.05 0.04 0.05 0.05 0.05 0.03 0.02 0.04 0.05 0.07 0.07 0.06 0.04 0.02 0.01 0.01 0.00 0.01 0.02 0.02 0.02 0.04 0.04 0.03 0.03 0.02 0.02 0.01 0.01 0.01 0.01 0.01 0.01 0.01 0.01 0.01
0.03 0.04 0.04 0.03 0.04 0.04 0.04 0.04 0.03 0.04 0.05 0.06 0.03 0.02 0.03 0.04 0.06 0.07 0.06 0.05 0.03 0.01 0.00 0.00 0.00 0.01 0.02 0.02 0.02 0.02 0.03 0.02 0.01 0.01 0.01 0.01 0.01 0.01 0.01 0.01 0.01 0.01 0.01
MSLP
1013.73 1014.06 1014.50 1014.98 1015.46 1015.89 1016.22 1016.45 1016.57 1016.63 1016.65 1016.68 1016.74 1016.84 1016.97 1017.13 1017.27 1017.37 1017.41 1017.38 1017.30 1017.19 1017.07 1016.96 1016.87 1016.81 1016.78 1016.75 1016.72 1016.66 1016.58 1016.46 1016.33 1016.19 1016.06 1015.94 1015.84 1015.77 1015.70 1015.63 1015.56 1015.48 1015.40
1013.43 1013.80 1014.29 1014.84 1015.40 1015.89 1016.29 1016.57 1016.72 1016.79 1016.82 1016.84 1016.90 1017.00 1017.15 1017.31 1017.46 1017.58 1017.64 1017.62 1017.56 1017.45 1017.33 1017.22 1017.13 1017.06 1017.00 1016.94 1016.86 1016.75 1016.61 1016.45 1016.28 1016.13 1015.99 1015.89 1015.81 1015.76 1015.72 1015.67 1015.61 1015.53 1015.45
1013.20 1013.59 1014.11 1014.71 1015.32 1015.88 1016.34 1016.67 1016.87 1016.98 1017.02 1017.06 1017.12 1017.22 1017.36 1017.53 1017.68 1017.79 1017.84 1017.83 1017.77 1017.67 1017.56 1017.45 1017.35 1017.27 1017.18 1017.08 1016.94 1016.77 1016.57 1016.36 1016.15 1015.97 1015.84 1015.74 1015.70 1015.68 1015.67 1015.65 1015.62 1015.55 1015.47
1013.10 1013.49 1014.02 1014.64 1015.29 1015.89 1016.40 1016.78 1017.02 1017.16 1017.24 1017.30 1017.37 1017.47 1017.61 1017.76 1017.89 1017.98 1018.02 1018.00 1017.93 1017.84 1017.73 1017.63 1017.54 1017.45 1017.34 1017.20 1017.01 1016.79 1016.53 1016.27 1016.02 1015.81 1015.67 1015.59 1015.56 1015.57 1015.60 1015.61 1015.60 1015.56 1015.49
1013.14 1013.53 1014.06 1014.68 1015.33 1015.95 1016.48 1016.89 1017.17 1017.35 1017.46 1017.54 1017.62 1017.73 1017.85 1017.98 1018.09 1018.16 1018.18 1018.15 1018.08 1017.99 1017.89 1017.81 1017.72 1017.63 1017.51 1017.34 1017.12 1016.85 1016.55 1016.25 1015.96 1015.74 1015.58 1015.50 1015.49 1015.52 1015.56 1015.60 1015.61 1015.59 1015.54
1013.34 1013.73 1014.24 1014.84 1015.48 1016.08 1016.61 1017.02 1017.32 1017.52 1017.65 1017.76 1017.86 1017.97 1018.09 1018.21 1018.30 1018.35 1018.35 1018.30 1018.23 1018.15 1018.07 1018.00 1017.93 1017.84 1017.72 1017.55 1017.31 1017.02 1016.69 1016.36 1016.05 1015.81 1015.65 1015.56 1015.54 1015.57 1015.62 1015.67 1015.69 1015.68 1015.65
1013.66 1014.05 1014.54 1015.11 1015.71 1016.28 1016.78 1017.18 1017.47 1017.68 1017.83 1017.95 1018.07 1018.19 1018.31 1018.43 1018.51 1018.54 1018.53 1018.48 1018.41 1018.34 1018.27 1018.22 1018.17 1018.10 1017.99 1017.82 1017.58 1017.29 1016.96 1016.62 1016.31 1016.07 1015.89 1015.80 1015.77 1015.79 1015.82 1015.85 1015.87 1015.86 1015.83
1014.04 1014.43 1014.91 1015.45 1016.00 1016.52 1016.97 1017.34 1017.62 1017.82 1017.98 1018.12 1018.25 1018.39 1018.53 1018.64 1018.72 1018.76 1018.74 1018.70 1018.63 1018.57 1018.52 1018.48 1018.45 1018.39 1018.30 1018.14 1017.92 1017.65 1017.33 1017.01 1016.72 1016.48 1016.31 1016.21 1016.16 1016.16 1016.16 1016.17 1016.17 1016.15 1016.12
1014.40 1014.81 1015.29 1015.80 1016.30 1016.78 1017.18 1017.51 1017.76 1017.96 1018.12 1018.27 1018.42 1018.58 1018.73 1018.85 1018.94 1018.98 1018.97 1018.93 1018.87 1018.82 1018.78 1018.76 1018.73 1018.69 1018.61 1018.48 1018.28 1018.04 1017.76 1017.48 1017.22 1017.01 1016.85 1016.75 1016.69 1016.66 1016.64 1016.61 1016.58 1016.54 1016.50
1014.68 1015.13 1015.61 1016.10 1016.58 1017.01 1017.38 1017.67 1017.90 1018.09 1018.25 1018.41 1018.58 1018.75 1018.91 1019.04 1019.14 1019.19 1019.18 1019.15 1019.10 1019.06 1019.03 1019.01 1019.00 1018.97 1018.90 1018.79 1018.63 1018.43 1018.20 1017.96 1017.75 1017.58 1017.45 1017.36 1017.30 1017.24 1017.19 1017.14 1017.08 1017.02 1016.97
1014.84 1015.33 1015.83 1016.33 1016.79 1017.20 1017.54 1017.81 1018.03 1018.21 1018.38 1018.55 1018.72 1018.90 1019.06 1019.20 1019.30 1019.35 1019.36 1019.33 1019.29 1019.25 1019.23 1019.22 1019.21 1019.20 1019.15 1019.07 1018.94 1018.78 1018.60 1018.43 1018.28 1018.15 1018.06 1017.99 1017.93 1017.87 1017.80 1017.72 1017.63 1017.56 1017.49
1014.87 1015.41 1015.94 1016.45 1016.92 1017.33 1017.66 1017.93 1018.15 1018.33 1018.51 1018.68 1018.85 1019.03 1019.19 1019.32 1019.41 1019.45 1019.46 1019.43 1019.40 1019.38 1019.36 1019.37 1019.38 1019.38 1019.36 1019.31 1019.22 1019.11 1018.99 1018.88 1018.79 1018.72 1018.67 1018.62 1018.58 1018.52 1018.44 1018.34 1018.23 1018.13 1018.06
1014.79 1015.37 1015.94 1016.48 1016.96 1017.38 1017.73 1018.02 1018.25 1018.45 1018.62 1018.80 1018.97 1019.13 1019.27 1019.39 1019.46 1019.49 1019.49 1019.47 1019.45 1019.44 1019.45 1019.48 1019.52 1019.55 1019.56 1019.55 1019.51 1019.45 1019.39 1019.34 1019.30 1019.28 1019.27 1019.26 1019.23 1019.17 1019.08 1018.97 1018.85 1018.74 1018.65
1014.64 1015.25 1015.86 1016.42 1016.94 1017.39 1017.76 1018.07 1018.33 1018.55 1018.74 1018.91 1019.08 1019.22 1019.34 1019.42 1019.47 1019.48 1019.47 1019.46 1019.45 1019.47 1019.51 1019.58 1019.66 1019.73 1019.80 1019.84 1019.85 1019.84 1019.84 1019.83 1019.84 1019.86 1019.89 1019.90 1019.89 1019.83 1019.74 1019.62 1019.48 1019.35 1019.24
1014.45 1015.10 1015.73 1016.33 1016.87 1017.34 1017.75 1018.10 1018.39 1018.63 1018.84 1019.02 1019.17 1019.30 1019.39 1019.45 1019.47 1019.46 1019.45 1019.44 1019.45 1019.50 1019.58 1019.70 1019.83 1019.97 1020.09 1020.18 1020.25 1020.30 1020.34 1020.38 1020.43 1020.48 1020.53 1020.56 1020.55 1020.51 1020.41 1020.28 1020.13 1019.97 1019.84
1014.27 1014.94 1015.59 1016.20 1016.77 1017.27 1017.71 1018.09 1018.42 1018.69 1018.92 1019.12 1019.27 1019.38 1019.45 1019.49 1019.49 1019.47 1019.46 1019.46 1019.49 1019.57 1019.70 1019.87 1020.06 1020.25 1020.44 1020.59 1020.72 1020.81 1020.89 1020.97 1021.04 1021.11 1021.17 1021.21 1021.21 1021.17 1021.08 1020.94 1020.77 1020.59 1020.43
1014.12 1014.79 1015.45 1016.07 1016.65 1017.18 1017.65 1018.06 1018.42 1018.73 1018.99 1019.20 1019.36 1019.47 1019.54 1019.57 1019.56 1019.55 1019.53 1019.55 1019.60 1019.71 1019.88 1020.09 1020.32 1020.57 1020.80 1021.01 1021.18 1021.32 1021.43 1021.53 1021.61 1021.69 1021.76 1021.81 1021.82 1021.78 1021.70 1021.56 1021.39 1021.20 1021.00
1013.97 1014.65 1015.31 1015.93 1016.52 1017.06 1017.56 1018.00 1018.39 1018.73 1019.02 1019.26 1019.44 1019.57 1019.65 1019.68 1019.69 1019.68 1019.68 1019.71 1019.78 1019.91 1020.09 1020.33 1020.59 1020.87 1021.13 1021.37 1021.57 1021.73 1021.87 1021.98 1022.08 1022.16 1022.24 1022.29 1022.32 1022.30 1022.23 1022.12 1021.95 1021.76 1021.56
1013.80 1014.48 1015.14 1015.76 1016.35 1016.91 1017.42 1017.89 1018.31 1018.69 1019.01 1019.27 1019.48 1019.65 1019.76 1019.82 1019.86 1019.87 1019.89 1019.93 1020.01 1020.14 1020.33 1020.56 1020.82 1021.09 1021.36 1021.60 1021.81 1021.99 1022.13 1022.25 1022.35 1022.45 1022.53 1022.60 1022.65 1022.66 1022.63 1022.56 1022.43 1022.27 1022.07
1013.56 1014.25 1014.91 1015.54 1016.14 1016.71 1017.24 1017.73 1018.17 1018.58 1018.93 1019.23 1019.48 1019.68 1019.83 1019.95 1020.02 1020.08 1020.12 1020.18 1020.26 1020.38 1020.54 1020.74 1020.97 1021.21 1021.46 1021.68 1021.88 1022.05 1022.19 1022.30 1022.41 1022.50 1022.60 1022.69 1022.77 1022.84 1022.86 1022.85 1022.79 1022.68 1022.52
1013.21 1013.92 1014.59 1015.23 1015.85 1016.44 1016.99 1017.50 1017.97 1018.39 1018.77 1019.10 1019.39 1019.64 1019.84 1020.01 1020.14 1020.24 1020.32 1020.40 1020.48 1020.58 1020.70 1020.86 1021.04 1021.23 1021.43 1021.62 1021.79 1021.93 1022.05 1022.16 1022.25 1022.35 1022.46 1022.57 1022.70 1022.82 1022.92 1022.98 1023.01 1022.97 1022.88
1012.72 1013.45 1014.15 1014.82 1015.47 1016.09 1016.66 1017.20 1017.68 1018.13 1018.53 1018.89 1019.21 1019.50 1019.76 1019.98 1020.17 1020.33 1020.45 1020.56 1020.64 1020.72 1020.81 1020.92 1021.04 1021.18 1021.32 1021.46 1021.59 1021.70 1021.80 1021.88 1021.96 1022.06 1022.17 1022.30 1022.46 1022.63 1022.80 1022.96 1023.07 1023.13 1023.13
1012.08 1012.85 1013.59 1014.31 1015.00 1015.65 1016.26 1016.82 1017.33 1017.79 1018.20 1018.58 1018.93 1019.25 1019.56 1019.84 1020.10 1020.31 1020.49 1020.63 1020.73 1020.81 1020.88 1020.95 1021.02 1021.11 1021.20 1021.29 1021.38 1021.46 1021.53 1021.58 1021.64 1021.72 1021.82 1021.95 1022.13 1022.34 1022.56 1022.79 1023.00 1023.16 1023.25
1011.33 1012.13 1012.92 1013.70 1014.44 1015.15 1015.80 1016.39 1016.92 1017.39 1017.81 1018.20 1018.56 1018.92 1019.26 1019.59 1019.91 1020.19 1020.42 1020.61 1020.75 1020.84 1020.91 1020.97 1021.02 1021.07 1021.13 1021.20 1021.26 1021.31 1021.34 1021.37 1021.40 1021.44 1021.51 1021.62 1021.79 1022.00 1022.26 1022.53 1022.81 1023.05 1023.24
1010.51 1011.36 1012.20 1013.03 1013.83 1014.59 1015.29 1015.92 1016.47 1016.95 1017.38 1017.77 1018.14 1018.51 1018.88 1019.26 1019.62 1019.96 1020.26 1020.50 1020.69 1020.83 1020.92 1020.99 1021.05 1021.10 1021.15 1021.21 1021.26 1021.29 1021.31 1021.31 1021.30 1021.30 1021.32 1021.38 1021.50 1021.69 1021.94 1022.23 1022.54 1022.84 1023.10
1009.70 1010.58 1011.46 1012.34 1013.19 1014.01 1014.75 1015.42 1016.00 1016.49 1016.92 1017.31 1017.69 1018.07 1018.46 1018.86 1019.27 1019.66 1020.02 1020.33 1020.57 1020.76 1020.90 1021.00 1021.09 1021.17 1021.24 1021.31 1021.37 1021.41 1021.42 1021.40 1021.36 1021.30 1021.26 1021.26 1021.32 1021.45 1021.65 1021.92 1022.23 1022.56 1022.86
Thickness
5726 5726 5723 5724 5724 5724 5724 5724 5725 5725 5726 5726 5726 5726 5726 5726 5726 5726 5725 5725 5725 5725 5726 5726 5725 5725 5725 5724 5724 5723 5723 5722 5722 5721 5721 5720 5720 5720 5720 5720 5721 5721 5719
5723 5722 5720 5720 5720 5720 5720 5720 5720 5721 5722 5722 5722 5722 5723 5723 5723 5722 5722 5722 5722 5722 5722 5722 5722 5722 5721 5721 5720 5720 5719 5719 5718 5718 5718 5718 5717 5717 5717 5716 5717 5718 5716
5719 5718 5716 5715 5715 5715 5716 5716 5716 5717 5717 5718 5718 5719 5719 5719 5719 5719 5718 5718 5718 5718 5718 5718 5718 5718 5717 5717 5717 5716 5715 5715 5715 5715 5716 5717 5716 5714 5714 5713 5713 5713 5713
5714 5713 5712 5710 5710 5711 5711 5711 5712 5712 5713 5713 5714 5715 5715 5715 5715 5715 5715 5714 5714 5714 5714 5714 5714 5714 5713 5713 5713 5713 5712 5712 5711 5712 5715 5715 5714 5711 5711 5711 5710 5710 5710
5708 5707 5706 5704 5705 5705 5706 5706 5707 5708 5708 5709 5709 5710 5710 5711 5711 5710 5710 5710 5710 5710 5710 5710 5710 5709 5709 5709 5709 5709 5709 5708 5708 5710 5711 5711 5710 5708 5707 5707 5707 5706 5706
5702 5701 5700 5699 5699 5700 5700 5701 5701 5702 5703 5704 5704 5705 5706 5706 5706 5706 5706 5706 5706 5706 5706 5706 5706 5706 5705 5705 5706 5706 5705 5705 5706 5708 5708 5708 5707 5704 5704 5703 5703 5702 5702
5695 5694 5693 5692 5693 5693 5694 5695 5696 5697 5697 5698 5699 5700 5700 5701 5701 5701 5701 5701 5701 5702 5702 5701 5701 5702 5702 5702 5701 5701 5701 5702 5704 5704 5704 5703 5702 5700 5700 5699 5699 5698 5698
5688 5687 5687 5686 5686 5687 5688 5689 5690 5691 5692 5693 5693 5694 5695 5695 5696 5696 5696 5696 5697 5697 5697 5697 5697 5697 5698 5697 5697 5697 5697 5697 5699 5700 5699 5699 5696 5696 5695 5695 5694 5694 5693
5680 5680 5680 5680 5680 5680 5681 5682 5683 5684 5685 5686 5687 5687 5688 5689 5690 5690 5691 5691 5692 5692 5692 5692 5692 5693 5693 5693 5692 5692 5692 5693 5696 5695 5695 5694 5692 5691 5691 5690 5690 5689 5689
5673 5673 5673 5673 5673 5673 5674 5674 5676 5677 5678 5679 5679 5680 5681 5682 5684 5684 5685 5686 5686 5687 5687 5687 5687 5688 5688 5688 5688 5688 5688 5689 5691 5690 5690 5688 5687 5686 5686 5685 5685 5684 5684
5665 5665 5665 5666 5666 5666 5667 5667 5668 5670 5671 5672 5673 5673 5674 5676 5678 5679 5679 5679 5680 5681 5681 5681 5682 5682 5682 5682 5682 5683 5684 5686 5686 5685 5684 5682 5682 5681 5681 5680 5679 5678 5678
5656 5657 5657 5658 5658 5658 5659 5660 5662 5663 5665 5667 5667 5668 5669 5670 5671 5673 5672 5673 5673 5674 5675 5675 5675 5676 5677 5679 5678 5678 5680 5681 5681 5679 5678 5676 5676 5676 5675 5674 5673 5673 5672
5648 5649 5649 5649 5649 5650 5651 5652 5654 5656 5657 5659 5661 5661 5662 5663 5664 5666 5667 5667 5667 5668 5669 5669 5670 5672 5673 5673 5674 5674 5674 5674 5674 5673 5671 5669 5669 5669 5669 5668 5667 5666 5666
5640 5640 5639 5640 5640 5641 5642 5643 5645 5647 5649 5651 5653 5654 5657 5657 5658 5660 5662 5662 5662 5663 5663 5664 5665 5666 5667 5667 5668 5668 5668 5667 5667 5666 5663 5662 5662 5662 5662 5661 5661 5659 5659
5633 5632 5631 5631 5632 5632 5633 5634 5636 5638 5641 5644 5645 5647 5650 5652 5653 5654 5655 5655 5656 5657 5657 5658 5659 5660 5660 5660 5660 5660 5660 5660 5659 5658 5656 5655 5654 5654 5654 5654 5653 5652 5651
5625 5624 5623 5623 5624 5625 5625 5626 5628 5629 5631 5634 5637 5640 5642 5644 5645 5646 5647 5648 5649 5649 5650 5651 5652 5652 5653 5653 5653 5653 5652 5652 5651 5650 5649 5648 5646 5646 5645 5645 5645 5644 5643
5617 5616 5615 5615 5616 5617 5618 5618 5620 5621 5624 5626 5630 5632 5634 5636 5638 5639 5640 5640 5641 5642 5643 5644 5644 5645 5645 5645 5645 5645 5644 5644 5643 5643 5642 5641 5639 5637 5636 5636 5636 5635 5635
5609 5608 5607 5607 5607 5608 5609 5610 5611 5613 5616 5618 5621 5623 5626 5628 5630 5631 5632 5633 5633 5635 5636 5637 5637 5637 5637 5637 5637 5636 5636 5635 5635 5634 5633 5632 5631 5630 5628 5627 5626 5626 5626
5603 5602 5600 5599 5600 5601 5601 5602 5603 5605 5608 5610 5612 5614 5617 5619 5621 5623 5624 5624 5625 5627 5628 5629 5629 5629 5629 5628 5627 5627 5627 5627 5625 5625 5624 5623 5622 5621 5621 5618 5617 5616 5616
5596 5595 5593 5591 5592 5592 5593 5594 5595 5597 5600 5602 5604 5605 5608 5609 5612 5614 5615 5616 5617 5619 5620 5620 5620 5620 5620 5619 5618 5617 5617 5617 5616 5615 5615 5614 5612 5612 5611 5611 5609 5608 5606
5590 5588 5586 5584 5584 5585 5587 5589 5590 5591 5593 5594 5596 5597 5599 5602 5604 5606 5607 5608 5608 5610 5611 5611 5611 5611 5610 5609 5609 5609 5608 5607 5606 5605 5605 5605 5604 5603 5602 5601 5600 5600 5598
5583 5582 5580 5579 5578 5580 5582 5583 5583 5584 5585 5587 5588 5590 5592 5594 5595 5597 5599 5599 5599 5600 5601 5602 5601 5601 5600 5599 5601 5601 5602 5600 5598 5596 5595 5594 5594 5593 5592 5591 5591 5590 5590
5577 5576 5574 5573 5572 5573 5574 5575 5576 5576 5577 5579 5581 5582 5584 5585 5587 5588 5589 5590 5590 5591 5592 5592 5592 5592 5591 5589 5589 5591 5593 5596 5592 5589 5586 5585 5584 5583 5582 5581 5581 5580 5579
5571 5569 5567 5567 5566 5566 5567 5569 5571 5572 5573 5574 5574 5575 5576 5577 5578 5579 5580 5581 5581 5582 5583 5583 5583 5582 5581 5581 5578 5577 5577 5580 5580 5581 5579 5576 5574 5574 5573 5572 5570 5570 5569
5563 5561 5561 5560 5559 5559 5560 5562 5564 5565 5566 5566 5565 5567 5569 5569 5569 5570 5570 5572 5572 5573 5573 5573 5573 5572 5572 5572 5570 5569 5567 5565 5566 5569 5571 5569 5566 5564 5562 5561 5560 5559 5558
5556 5554 5554 5554 5553 5552 5553 5555 5557 5558 5559 5558 5558 5559 5560 5560 5560 5561 5562 5563 5563 5563 5563 5563 5563 5562 5562 5561 5560 5559 5558 5557 5557 5557 5559 5559 5558 5555 5552 5550 5549 5549 5548